Flag for Bahamas Weather past 2 weeks in Nassau, Bahamas

Now
86 °F

Overcast.


Feels Like: 95 °F
Forecast: 83 / 89 °F
Wind: 6 mph from South

Location: Nassau Airport

Current Time: Jul 29, 2015 at 11:03:52 PM

Latest Report: Jul 29, 2015 at 10:00 PM


Visibility: N/A

Pressure: 30.03 "Hg

Humidity: 70%

Dew point: 75 °F

Location of NassauLocation

Historic Weather in Nassau — Graph

°F

Nassau temperature yesterday

Maximum temperature yesterday: 88 °F (at 11:00 AM)
Minimum temperature yesterday: 81 °F (at 6:00 AM)
Average temperature yesterday: 85 °F

Past Weeks' High & Low Weather Summary

 TemperatureHumidityPressure
High95 °F (Jul 22, 2:00 PM)94% (Jul 17, 11:00 AM)30.15 "Hg (Jul 17, 11:00 AM)
Low79 °F (Jul 14, 10:00 PM)49% (Jul 22, 3:00 PM)29.94 "Hg (Jul 26, 5:00 AM)
Average85 °F73%30.04 "Hg
* Reported Jul 14 10:00 PM — Jul 29 10:00 PM, Nassau, Weather by CustomWeather, © 2015

Note: Actual official high and low records may vary slightly from our data, if they occured in-between our weather recording intervals... More about our weather records

Advertising

Nassau weather history for previous 24 hours

 ConditionsComfort  
Time TempWeatherWind HumidityBarometerVisibility
10:00 PM
Wed, Jul 29
86 °FOvercast.6 mph70%30.03 "HgN/A
9:00 PM86 °FOvercast.6 mph70%30.03 "HgN/A
8:00 PM88 °FOvercast.5 mph79%30.01 "HgN/A
7:00 PM86 °FOvercast.7 mph70%30.01 "HgN/A
6:00 PM88 °FPartly sunny.6 mph62%30.01 "HgN/A
5:00 PM88 °FBroken clouds.7 mph66%30.02 "HgN/A
4:00 PM88 °FBroken clouds.3 mph66%30.03 "HgN/A
3:00 PM88 °FBroken clouds.3 mph62%30.04 "HgN/A
2:00 PM91 °FBroken clouds.9 mph67%30.04 "HgN/A
1:00 PM88 °FBroken clouds.14 mph62%30.06 "HgN/A
12:00 PM88 °FBroken clouds.7 mph62%30.06 "HgN/A
11:00 AM90 °FBroken clouds.12 mph71%30.06 "HgN/A
10:00 AM86 °FBroken clouds.9 mph70%30.04 "HgN/A
9:00 AM84 °FPartly sunny.7 mph70%30.04 "HgN/A
8:00 AM82 °FPartly sunny.No wind84%30.05 "HgN/A
7:20 AMN/ASandstorm.N/AN/AN/AN/A
6:00 AM82 °FPassing clouds.No wind74%30.01 "HgN/A
5:00 AM82 °FPassing clouds.2 mph79%30.01 "HgN/A
1:00 AM82 °FPassing clouds.5 mph79%30.04 "HgN/A
12:00 AM82 °FPassing clouds.3 mph79%30.06 "HgN/A
11:00 PM
Tue, Jul 28
84 °FPassing clouds.3 mph84%30.06 "HgN/A
Weather by CustomWeather, © 2015

See weather overviewHow to use our weather pages